{"data":{"norad_id":62288,"intl_designator":"2024-237X","name":"STARLINK-33565","alt_names":[],"object_type":"PAYLOAD","status":"ACTIVE","operator":null,"country":"US","launch_date":"2024-12-08","launch_site_code":"AFETR","launch_vehicle":null,"mission":null,"orbit_class":"UNKNOWN","rcs_meters":null,"size_class":null,"mass_kg":null,"dimensions":null,"purposes":["comms"],"wikipedia_slug":null,"has_3d_model":false,"image_url":null,"decayed_at":null,"tle_current":{"epoch":"2026-05-25T00:03:58.871808Z","epoch_age_seconds":74829,"freshness":"FRESH","line1":"1 62288U 24237X   26145.00276472  .00012474  00000+0  46182-3 0  9991","line2":"2 62288  42.9955 134.0837 0000513 147.7558 212.3325 15.27596105 82991","mean_motion":15.27596105,"eccentricity":5.13e-5,"inclination_deg":42.9955,"raan_deg":134.0837,"arg_perigee_deg":147.7558,"mean_anomaly_deg":212.3325,"bstar":0.00046182,"rev_number":8299,"period_min":94.265754886826,"perigee_km":482.64889592674,"apogee_km":483.35284867244,"semimajor_km":6861.1378722996,"source":"CELESTRAK","updated_at":"2026-05-25T13:38:19.646407Z"}}}